INTASAT

导读

INTASAT是西班牙(ES)于1974年11月15日08:00发射的卫星,是西班牙早期航天尝试的代表产物。作为西班牙较早进入太空的人造卫星,它承载着西班牙航天领域初步探索的意义,标志着西班牙正式跻身航天发射活动国家之列,为后续西班牙航天技术发展、卫星应用研发积累了基础经验,在欧洲早期航天发展进程中留下了独特印记。

基本信息
目录编号:
7531
目录名称:
INTASAT
国际标识:
1974-089C
轨道中心:
EARTH
卫星名称:
INTASAT
卫星全名:
--
卫星状态:
在轨 (已飞行18931 天)
发射日期:
1974-11-15 UTC
国别 :
西班牙 (ES)
星等 :
--
该卫星已列入 空间交会检测服务 Space Conjunction Data Service (SCDS) ,当前飞行风险评估等级: 无高风险
轨道信息
数据来源 国际轨道数据
星历时间: 2026-09-14T07:25:41+0800
7小时前
查看轨道信息
半长轴: 7827.893km
偏心率: 0.0011213
轨道倾角: 101.996°
近地点辐角 334.907°
升交点赤经 270.274°
平近点角 39.034°
近地点: 1440.978km
远地点: 1458.534km
周期: 114.875分钟
每日圈数: 12.535321
详细信息
使用方式:
暂无
2D轨道图
3D轨道图
轨道高度分析图
轨道倾角分析图
轨道综合分析图
查看轨道综合分析图
交会数据列表
事件ID 空间交会对象 最接近时刻(TCA) 交会距离 交会风险概率(CRP) 交会风险指数(CRI) 操作
CDM_260915-024700-753101-232425
INTASAT (7531)
2026-09-15T
02:47:28+0000
2.313 km
极远距离
1.99231E-6 低风险 0.41
CDM_260915-190300-753100-932322
INTASAT (7531)
2026-09-15T
19:03:23+0000
2.640 km
极远距离
1.498339E-6 低风险 0.39
CDM_260915-215900-753100-839423
INTASAT (7531)
2026-09-15T
21:59:51+0000
2.367 km
极远距离
3.031897E-7 极低风险 0.25
与全量物体交会距离演化趋势 订阅飞行安全评估服务
与全量物体交会风险概率演化趋势 订阅飞行安全评估服务